OBJECT F, 66000

Orbit data source: Space-Track

You're viewing an Uncataloged Satellite

Recently launched and/or uncataloged satellites may have evolving metadata. Metadata may include but not limited to: Owner, Maufacturer, Bus, Motor, and Mission.

OBJECT F, 66000 is a satellite owned by Zhongguo Xingwang (CN) in LEO that was launched on Thu, 16 Oct 2025 UTC via a CHANG ZHENG 8A launch vehicle from the Wenchang Satellite Launch Center (WSC). Unknown objects in Earth's orbit typically refer to objects detected orbiting the Earth but have not yet been identified or cataloged. These objects could be anything from previously untracked satellites, spent rocket stages, debris from satellite collisions, or even natural meteoroids temporarily captured by Earth's gravity.

Loading next visibility...
Identifier
66000, 2025-231F
Orbit
LEO
Country
Flag of CNCN / PRC
Related business
Manufacturer
CAST
Mission
Operational spacecraft
Bus & Motor
GUOWANG C, Unknown motor
Mass
~800 kg wet, ~800 kg dry
Launch date (UTC)
2025-10-16 (4 weeks ago)
Launch vehicle
CHANG ZHENG 8A
Launch site
Wenchang Satellite Launch Center (WSC)
Object type
Unknown
Shape & HBR
Unknown shape, 1.1 m
Radar Cross Section
RCS unknown

Expand to show TLE details & history
Last TLE update: 2 days ago

TLE from 2 days ago
0 OBJECT F
1 66000U 25231F   25312.14952198  .00000094  00000-0  15481-3 0  9992
2 66000  50.0043 263.5985 0002341 350.0501  10.0356 14.03752050  3250
Epoch: 2025-11-08T03:35Z
TLE epoch observation values (Epoch: 2025-11-08T03:35:18.699Z)
Latitude
-0.00005°
Longitude
162.18727°
Altitude
879.683 km
Speed
7.414 km/s
True Right ascension
17h 34m 23s
True Declination
0° 00' 00"
Sunlit
Object was in daylight at epoch
Visualization orbit readout
Latitude
Unknown
Longitude
Unknown
Altitude
Unknown
Speed
Unknown
Apparent Right ascension
Unknown
Apparent Declination
Unknown
Sunlit
N/A
Visualization observer readout
Local Sidereal Time
03:26:12
Azimuth
Unknown
Elevation
Unknown
Doppler factor
Unknown
Orbital elements
Apogee altitude
883.261 km
Perigee altitude
879.862 km
Semi-major axis
7,259.699 km
Eccentricity
0.00023
Inclination
50.0043°
RAAN
263.5985°
Arg. of periapsis
350.0501°
True anomaly
10.04028°
Mean anomaly
10.0356°
Eccentric anomaly
10.03794°
Mean motion
3.50885 °/min
Orbital period
102.6 mins
BSTAR
0.00015481
Loading maneuver chart data...
Computing Atmospheric mass density...
Loading historical data...
Loading historical data...
Loading historical data...
Loading historical data...
Loading historical data...
Loading historical data...
Loading historical data...

Documentation

Showing up to 5 results
|